TimeMDT,TemperatureF,Dew PointF,Humidity,Sea Level PressureIn,VisibilityMPH,Wind Direction,Wind SpeedMPH,Gust SpeedMPH,PrecipitationIn,Events,Conditions,WindDirDegrees,DateUTC
12:53 AM,46.9,17.1,30,29.79,10.0,West,20.7,28.8,N/A,,Clear,280,2013-04-29 06:53:00
1:53 AM,46.0,18.0,33,29.78,10.0,West,13.8,19.6,N/A,,Clear,260,2013-04-29 07:53:00
2:53 AM,46.0,17.1,31,29.73,10.0,West,8.1,20.7,N/A,,Clear,260,2013-04-29 08:53:00
3:53 AM,46.0,19.0,34,29.71,10.0,West,10.4,24.2,N/A,,Clear,260,2013-04-29 09:53:00
4:53 AM,46.0,19.9,35,29.69,10.0,West,12.7,23.0,N/A,,Partly Cloudy,270,2013-04-29 10:53:00
5:53 AM,45.0,24.1,44,29.68,10.0,WSW,13.8,21.9,N/A,,Overcast,250,2013-04-29 11:53:00
6:53 AM,44.1,26.1,49,29.67,10.0,Variable,3.5,-,N/A,,Overcast,0,2013-04-29 12:53:00
7:53 AM,43.0,28.9,58,29.67,10.0,WSW,5.8,-,N/A,,Mostly Cloudy,240,2013-04-29 13:53:00
8:53 AM,45.0,30.9,58,29.65,10.0,SW,9.2,-,N/A,,Overcast,230,2013-04-29 14:53:00
9:34 AM,46.4,30.2,53,29.69,2.0,WSW,16.1,25.3,N/A,,Haze,240,2013-04-29 15:34:00
9:44 AM,46.4,32.0,57,29.69,3.0,WSW,23.0,33.4,N/A,,Haze,250,2013-04-29 15:44:00
9:53 AM,43.0,34.0,71,29.63,5.0,West,17.3,33.4,0.00,Rain,Light Rain,260,2013-04-29 15:53:00
10:08 AM,44.6,33.8,66,29.67,1.8,West,15.0,23.0,0.00,Rain,Light Rain,280,2013-04-29 16:08:00
10:13 AM,44.6,33.8,66,29.67,3.0,West,16.1,23.0,0.00,,Haze,270,2013-04-29 16:13:00
10:53 AM,44.1,33.1,65,29.60,10.0,West,23.0,32.2,0.00,Rain,Light Rain,270,2013-04-29 16:53:00
11:53 AM,39.9,35.1,83,29.62,4.0,NW,25.3,31.1,0.01,Rain,Light Rain,310,2013-04-29 17:53:00
12:14 PM,42.8,37.4,81,29.65,10.0,NW,18.4,26.5,0.00,Rain,Light Rain,320,2013-04-29 18:14:00
12:22 PM,42.8,35.6,76,29.65,10.0,NW,19.6,26.5,0.00,,Mostly Cloudy,320,2013-04-29 18:22:00
12:53 PM,44.1,32.0,63,29.58,10.0,North,8.1,-,0.00,,Mostly Cloudy,360,2013-04-29 18:53:00
1:20 PM,46.4,21.2,37,29.64,10.0,West,20.7,38.0,N/A,,Overcast,280,2013-04-29 19:20:00
1:53 PM,48.9,19.9,32,29.55,10.0,West,26.5,38.0,N/A,,Scattered Clouds,280,2013-04-29 19:53:00
2:53 PM,46.0,19.9,35,29.59,10.0,WNW,20.7,31.1,N/A,,Overcast,300,2013-04-29 20:53:00
3:53 PM,48.9,15.1,26,29.56,10.0,West,25.3,46.0,N/A,,Mostly Cloudy,280,2013-04-29 21:53:00
4:53 PM,46.0,19.0,34,29.60,10.0,WNW,24.2,41.4,N/A,,Mostly Cloudy,300,2013-04-29 22:53:00
5:53 PM,37.9,21.9,53,29.71,10.0,WNW,29.9,47.2,N/A,,Scattered Clouds,290,2013-04-29 23:53:00
6:53 PM,37.9,21.0,51,29.73,10.0,NW,19.6,26.5,0.00,,Overcast,320,2013-04-30 00:53:00
7:43 PM,33.8,23.0,65,29.78,1.8,WNW,24.2,36.8,0.00,Snow,Light Snow,300,2013-04-30 01:43:00
7:53 PM,32.0,26.1,79,29.79,0.8,WNW,17.3,27.6,0.00,Snow,Light Snow,290,2013-04-30 01:53:00
7:57 PM,32.0,26.6,80,29.78,2.5,West,15.0,21.9,0.00,Snow,Light Snow,270,2013-04-30 01:57:00
8:04 PM,33.8,24.8,70,29.78,9.0,West,13.8,23.0,0.00,,Mostly Cloudy,260,2013-04-30 02:04:00
8:12 PM,32.0,24.8,75,29.78,10.0,West,13.8,21.9,0.00,,Mostly Cloudy,260,2013-04-30 02:12:00
8:53 PM,32.0,23.0,69,29.79,10.0,North,8.1,-,0.00,,Partly Cloudy,350,2013-04-30 02:53:00
9:53 PM,30.9,21.9,69,29.85,10.0,NW,10.4,-,N/A,,Scattered Clouds,320,2013-04-30 03:53:00
10:53 PM,28.0,21.0,75,29.86,10.0,NW,5.8,-,N/A,,Mostly Cloudy,320,2013-04-30 04:53:00
11:53 PM,28.9,19.0,67,29.86,10.0,NW,4.6,-,N/A,,Mostly Cloudy,310,2013-04-30 05:53:00